M I D A S
Marine Information and Data Acquisition System
Tripno 1822 of the Zeeleeuw from 2009-12-08 08:14:36 to 2009-12-08 17:35:47
Back to CruiseResearch ActivitiesStationsMapUnderway DataData graphs

EquipmentUnitsComment
TimeDGPSUTC
LatitudeDGPSDM.mWGS84
LongitudeDGPSDM.mWGS84
TemperatureSBE03/SBE38deg celciusITS90
ConductivitySBE21S/mITS90
SalinitySBE21 Practical Salinity Units
ChlorophylAChelsea fluorimeterg/lCalibrated in Aceton
Missing or incorrect values are displayed as -999
Sea surface data collected by the RV Zeeleeuw from 2009-12-08 08:37:15 to 2009-12-08 17:41:43
Time Latitude Longitude Temperature Conductivity Salinity ChlorophylA
2009-12-08 08:38:22 51°13.677 2°55.895 16.8208 0.055792 0.323821 -0.373735
2009-12-08 08:39:22 51°13.696 2°55.806 16.8576 0.055792 0.323815 -0.373735
2009-12-08 08:40:22 51°13.707 2°55.756 16.8464 0.055792 0.323796 -0.373735
2009-12-08 08:41:20 51°13.71 2°55.738 16.8722 0.055792 0.32379 -0.373735
2009-12-08 08:42:18 51°13.763 2°55.69 16.7397 0.055895 0.324405 -0.373735
2009-12-08 08:43:18 51°13.88 2°55.603 16.7923 0.055895 0.32443 -0.373735
2009-12-08 08:44:18 51°14.014 2°55.522 16.8182 0.055895 0.32443 -0.373735
2009-12-08 08:45:18 51°14.147 2°55.427 16.8067 0.055895 0.324436 -0.373735
2009-12-08 08:46:18 51°14.26 2°55.27 16.6538 0.055895 0.32443 -0.373735
2009-12-08 08:47:18 51°14.367 2°55.045 16.6125 0.055895 0.324424 -0.373735
2009-12-08 08:48:18 51°14.496 2°54.853 16.469 0.055792 0.323852 -0.373735
2009-12-08 08:49:18 51°14.652 2°54.728 16.4479 0.055895 0.324467 -0.373735
2009-12-08 08:50:18 51°14.801 2°54.58 16.4894 0.055895 0.324436 -0.373735
2009-12-08 08:51:18 51°14.953 2°54.441 16.4848 0.055895 0.324467 -0.373735
2009-12-08 08:52:18 51°15.105 2°54.3 16.494 0.055895 0.324467 -0.373735
2009-12-08 08:53:22 51°15.26 2°54.165 16.4642 0.055895 0.324455 -0.373735
2009-12-08 08:54:20 51°15.407 2°54.023 16.4839 0.055895 0.324474 -0.373735
2009-12-08 08:55:18 51°15.551 2°53.88 16.4937 0.055895 0.324492 -0.373735
2009-12-08 08:56:19 51°15.7 2°53.736 16.4995 0.055895 0.324492 -0.373735
2009-12-08 08:57:18 51°15.846 2°53.593 16.5085 0.055895 0.324486 -0.338911
2009-12-08 08:58:18 51°15.994 2°53.451 16.52 0.055895 0.324486 -0.373735
2009-12-08 08:59:18 51°16.147 2°53.307 16.5314 0.055895 0.324492 -0.373735
2009-12-08 09:00:18 51°16.308 2°53.186 16.5403 0.055895 0.324492 -0.373735
2009-12-08 09:01:18 51°16.471 2°53.07 16.5507 0.055895 0.324523 -0.373735
2009-12-08 09:02:18 51°16.635 2°52.953 16.5592 0.055895 0.324517 -0.373735
2009-12-08 09:03:18 51°16.798 2°52.836 16.5665 0.055895 0.324523 -0.373735
2009-12-08 09:04:19 51°16.959 2°52.729 16.5767 0.055895 0.324517 -0.373735
2009-12-08 09:05:18 51°17.125 2°52.643 16.5872 0.055895 0.324542 -0.373735
2009-12-08 09:06:18 51°17.301 2°52.573 16.5981 0.055895 0.324536 -0.373735
2009-12-08 09:07:18 51°17.479 2°52.536 16.6095 0.055895 0.324542 -0.338911
2009-12-08 09:08:18 51°17.663 2°52.539 16.6212 0.055895 0.324586 -0.373735
2009-12-08 09:09:19 51°17.848 2°52.55 16.6287 0.055895 0.324555 -0.373735
2009-12-08 09:10:18 51°18.024 2°52.548 16.6349 0.055895 0.324555 -0.338911
2009-12-08 09:11:18 51°18.2 2°52.554 16.645 0.055895 0.324561 -0.338911
2009-12-08 09:12:18 51°18.381 2°52.55 16.6525 0.055895 0.324573 -0.373735
2009-12-08 09:13:18 51°18.564 2°52.547 16.6648 0.055895 0.324579 -0.338911
2009-12-08 09:14:18 51°18.745 2°52.542 16.6759 0.055895 0.324567 -0.338911
2009-12-08 09:15:18 51°18.926 2°52.542 16.6828 0.055895 0.324567 -0.338911
2009-12-08 09:16:18 51°19.11 2°52.535 16.6963 0.055895 0.324567 -0.373735
2009-12-08 09:17:18 51°19.289 2°52.532 16.7028 0.055895 0.324579 -0.338911
2009-12-08 09:18:18 51°19.472 2°52.525 16.7122 0.055895 0.324561 -0.373735
2009-12-08 09:19:18 51°19.651 2°52.521 16.719 0.055895 0.324567 -0.338911
2009-12-08 09:20:18 51°19.832 2°52.518 16.7326 0.055895 0.324604 -0.338911
2009-12-08 09:21:18 51°20.01 2°52.5 16.7261 0.055895 0.324642 -0.373735
2009-12-08 09:22:20 51°20.162 2°52.374 16.7399 0.055895 0.324567 -0.373735
2009-12-08 09:23:20 51°20.275 2°52.185 16.7516 0.055895 0.324567 -0.338911
2009-12-08 09:24:20 51°20.384 2°51.981 16.7675 0.055895 0.324567 -0.373735
2009-12-08 09:25:18 51°20.504 2°51.787 16.7851 0.055895 0.324573 -0.338911
2009-12-08 09:26:18 51°20.639 2°51.612 16.7951 0.055895 0.324579 -0.338911
2009-12-08 09:27:18 51°20.795 2°51.475 16.8065 0.055895 0.324586 -0.338911
2009-12-08 09:28:18 51°20.956 2°51.362 16.815 0.055895 0.324586 -0.373735
2009-12-08 09:29:18 51°21.127 2°51.305 16.8243 0.055895 0.324598 -0.338911
2009-12-08 09:30:18 51°21.302 2°51.263 16.8362 0.055895 0.324586 -0.373735
2009-12-08 09:31:18 51°21.478 2°51.255 16.8439 0.055895 0.324598 -0.373735
2009-12-08 09:32:18 51°21.651 2°51.259 16.8589 0.055895 0.324604 -0.373735
2009-12-08 09:33:18 51°21.827 2°51.261 16.866 0.055895 0.324598 -0.338911
2009-12-08 09:34:18 51°22.001 2°51.278 16.8756 0.055895 0.324586 -0.338911
2009-12-08 09:35:18 51°22.17 2°51.366 16.8845 0.055895 0.324604 -0.373735
2009-12-08 09:36:18 51°22.337 2°51.467 16.8967 0.055895 0.324623 -0.338911
2009-12-08 09:37:18 51°22.504 2°51.559 16.9059 0.055895 0.324629 -0.338911
2009-12-08 09:38:18 51°22.672 2°51.651 16.9196 0.055895 0.324648 -0.373735
2009-12-08 09:39:18 51°22.842 2°51.738 16.9299 0.055895 0.324648 -0.338911
2009-12-08 09:40:18 51°23.012 2°51.827 16.9422 0.055895 0.324685 -0.338911
2009-12-08 09:41:18 51°23.18 2°51.917 16.9533 0.055895 0.324673 -0.338911
2009-12-08 09:42:18 51°23.346 2°52.005 16.9618 0.055895 0.324654 -0.338911
2009-12-08 09:43:18 51°23.513 2°52.097 16.9706 0.055895 0.32471 -0.373735
2009-12-08 09:44:18 51°23.682 2°52.179 16.9794 0.055895 0.324679 -0.338911
2009-12-08 09:45:18 51°23.848 2°52.271 16.9887 0.055895 0.324717 -0.338911
2009-12-08 09:46:18 51°24.016 2°52.358 16.998 0.055895 0.324654 -0.373735
2009-12-08 09:47:18 51°24.179 2°52.469 17.0079 0.055895 0.324673 -0.373735
2009-12-08 09:48:18 51°24.353 2°52.488 17.0189 0.055895 0.32466 -0.373735
2009-12-08 09:49:18 51°24.527 2°52.5 17.0277 0.055895 0.324667 -0.373735
2009-12-08 09:50:18 51°24.701 2°52.531 17.0359 0.055895 0.324667 -0.338911
2009-12-08 09:51:18 51°24.875 2°52.561 17.0481 0.055895 0.324673 -0.338911
2009-12-08 09:52:18 51°25.049 2°52.589 17.0594 0.055895 0.324673 -0.373735
2009-12-08 09:53:18 51°25.224 2°52.621 17.0703 0.055895 0.324673 -0.373735
2009-12-08 09:54:18 51°25.398 2°52.661 17.0808 0.055895 0.324667 -0.373735
2009-12-08 09:55:18 51°25.568 2°52.708 17.0934 0.055895 0.324679 -0.338911
2009-12-08 09:56:18 51°25.74 2°52.752 17.1038 0.055895 0.324667 -0.338911
2009-12-08 09:57:18 51°25.913 2°52.801 17.1155 0.055895 0.32466 -0.338911
2009-12-08 09:58:18 51°26.082 2°52.85 17.1265 0.055895 0.324685 -0.338911
2009-12-08 09:59:18 51°26.255 2°52.891 17.1348 0.055895 0.324667 -0.338911
2009-12-08 10:00:18 51°26.427 2°52.934 17.1487 0.055895 0.324654 -0.338911
2009-12-08 10:01:18 51°26.596 2°52.979 17.1569 0.055895 0.32466 -0.338911
2009-12-08 10:02:18 51°26.767 2°53.026 17.1672 0.055895 0.32466 -0.338911
2009-12-08 10:03:18 51°26.94 2°53.069 17.1772 0.055895 0.324667 -0.338911
2009-12-08 10:04:18 51°27.112 2°53.112 17.1892 0.055895 0.32466 -0.338911
2009-12-08 10:05:18 51°27.286 2°53.157 17.201 0.055895 0.324685 -0.338911
2009-12-08 10:06:18 51°27.458 2°53.204 17.2123 0.055895 0.324667 -0.338911
2009-12-08 10:07:18 51°27.628 2°53.251 17.2227 0.055895 0.324673 -0.338911
2009-12-08 10:08:18 51°27.802 2°53.294 17.2329 0.055895 0.324667 -0.338911
2009-12-08 10:09:18 51°27.975 2°53.338 17.2438 0.055895 0.324685 -0.338911
2009-12-08 10:10:18 51°28.147 2°53.39 17.2563 0.055895 0.324704 -0.338911
2009-12-08 10:11:18 51°28.32 2°53.436 17.2705 0.055895 0.324698 -0.338911
2009-12-08 10:12:18 51°28.493 2°53.483 17.2786 0.055895 0.32471 -0.338911
2009-12-08 10:13:18 51°28.666 2°53.54 17.2925 0.055895 0.324685 -0.338911
2009-12-08 10:14:18 51°28.838 2°53.607 17.3025 0.055895 0.324704 -0.338911
2009-12-08 10:15:18 51°29.007 2°53.676 12.5185 0.057953 0.337596 0.218274
2009-12-08 10:16:18 51°29.177 2°53.739 11.1647 3.820725 33.019691 -0.58268
2009-12-08 10:17:18 51°29.346 2°53.803 11.1246 3.860236 34.099907 -0.617504
2009-12-08 10:18:18 51°29.513 2°53.869 11.1074 3.857852 34.152452 -0.58268
2009-12-08 10:19:18 51°29.681 2°53.934 11.0946 3.857023 34.173472 -0.617504
2009-12-08 10:20:18 51°29.851 2°53.991 11.1033 3.857749 34.196081 -0.617504
2009-12-08 10:21:18 51°30.021 2°54.05 11.1034 3.857127 34.189933 -0.617504
2009-12-08 10:22:18 51°30.189 2°54.106 11.1182 3.857956 34.207076 -0.617504
2009-12-08 10:23:18 51°30.358 2°54.164 11.1182 3.859719 34.222059 -0.617504
2009-12-08 10:24:18 51°30.527 2°54.231 11.1221 3.862415 34.251967 -0.652328
2009-12-08 10:25:18 51°30.695 2°54.295 11.1219 3.864592 34.274312 -0.652328
2009-12-08 10:26:18 51°30.862 2°54.355 11.1356 3.86708 34.290764 -0.652328
2009-12-08 10:27:18 51°31.028 2°54.419 11.1398 3.868117 34.290416 -0.652328
2009-12-08 10:28:17 51°31.194 2°54.478 11.1485 3.871228 34.330957 -0.652328
2009-12-08 10:29:19 51°31.367 2°54.544 11.1401 3.872368 34.340603 -0.652328
2009-12-08 10:30:19 51°31.536 2°54.607 11.1468 3.872679 34.345312 -0.652328
2009-12-08 10:31:19 51°31.706 2°54.667 11.1472 3.87382 34.352507 -0.652328
2009-12-08 10:32:19 51°31.876 2°54.73 11.1544 3.874027 34.350474 -0.652328
2009-12-08 10:33:19 51°32.046 2°54.793 11.148 3.874131 34.35395 -0.652328
2009-12-08 10:34:19 51°32.215 2°54.858 11.1503 3.874027 34.353741 -0.652328
2009-12-08 10:35:19 51°32.361 2°54.912 11.1462 3.874131 34.35395 -0.652328
2009-12-08 10:36:19 51°32.469 2°54.921 11.1582 3.874027 34.359459 -0.687152
2009-12-08 10:37:19 51°32.488 2°55.017 11.161 3.874545 34.349885 -0.652328
2009-12-08 10:38:19 51°32.446 2°55.061 11.156 3.874131 34.340888 -0.652328
2009-12-08 10:39:19 51°32.422 2°55.072 11.1587 3.874649 34.353359 -0.652328
2009-12-08 10:40:19 51°32.404 2°55.078 11.1551 3.875064 34.351744 -0.687152
2009-12-08 10:41:19 51°32.392 2°55.083 11.158 3.875168 34.354402 -0.687152
2009-12-08 10:42:19 51°32.382 2°55.089 11.1614 3.875375 34.359718 -0.652328
2009-12-08 10:43:19 51°32.376 2°55.099 11.1583 3.875582 34.361769 -0.687152
2009-12-08 10:44:19 51°32.369 2°55.11 11.1547 3.875893 34.361577 -0.687152
2009-12-08 10:45:19 51°32.364 2°55.122 11.1549 3.875893 34.356678 -0.687152
2009-12-08 10:46:19 51°32.359 2°55.134 11.1598 3.875686 34.36116 -0.687152
2009-12-08 10:47:19 51°32.353 2°55.145 11.1532 3.875997 34.360969 -0.687152
2009-12-08 10:48:19 51°32.345 2°55.159 11.1564 3.87579 34.361369 -0.687152
2009-12-08 10:49:19 51°32.337 2°55.17 11.1557 3.875893 34.363211 -0.687152
2009-12-08 10:50:19 51°32.33 2°55.181 11.1521 3.875893 34.365661 -0.687152
2009-12-08 10:51:19 51°32.324 2°55.193 11.1549 3.875997 34.365869 -0.687152
2009-12-08 10:52:19 51°32.316 2°55.203 11.1573 3.875686 34.364427 -0.687152
2009-12-08 10:53:19 51°32.308 2°55.215 11.1511 3.875893 34.364844 -0.687152
2009-12-08 10:54:19 51°32.301 2°55.226 11.149 3.875686 34.368512 -0.687152
2009-12-08 10:55:19 51°32.293 2°55.237 11.1548 3.875686 34.368512 -0.687152
2009-12-08 10:56:19 51°32.286 2°55.251 11.1464 3.876205 34.369553 -0.687152
2009-12-08 10:57:19 51°32.279 2°55.261 11.1501 3.875894 34.37138 -0.687152
2009-12-08 10:58:19 51°32.271 2°55.27 11.1478 3.876101 34.370162 -0.687152
2009-12-08 10:59:19 51°32.265 2°55.28 11.1508 3.875686 34.372598 -0.687152
2009-12-08 11:00:19 51°32.259 2°55.29 11.1497 3.875894 34.373831 -0.687152
2009-12-08 11:01:19 51°32.245 2°55.304 11.1446 3.876101 34.375065 -0.687152
2009-12-08 11:02:19 51°32.211 2°55.352 11.1454 3.875997 34.37404 -0.687152
2009-12-08 11:03:19 51°32.226 2°55.414 11.1484 3.875686 34.376685 -0.687152
2009-12-08 11:04:19 51°32.274 2°55.445 11.1469 3.875894 34.379553 -0.652328
2009-12-08 11:05:19 51°32.351 2°55.492 11.1481 3.875894 34.379553 -0.687152
2009-12-08 11:06:19 51°32.445 2°55.55 11.147 3.87579 34.379345 -0.687152
2009-12-08 11:07:19 51°32.503 2°55.517 11.1443 3.875479 34.381992 -0.687152
2009-12-08 11:08:19 51°32.501 2°55.442 11.1476 3.875686 34.380772 -0.652328
2009-12-08 11:09:19 51°32.474 2°55.42 11.151 3.876101 34.380787 -0.652328
2009-12-08 11:10:19 51°32.452 2°55.421 11.1488 3.876308 34.381203 -0.652328
2009-12-08 11:11:19 51°32.436 2°55.426 11.1432 3.876101 34.379152 -0.687152
2009-12-08 11:12:19 51°32.422 2°55.435 11.1408 3.875686 34.377502 -0.687152
2009-12-08 11:13:19 51°32.411 2°55.441 11.147 3.87579 34.378528 -0.687152
2009-12-08 11:14:19 51°32.399 2°55.448 11.1446 3.875894 34.377101 -0.687152
2009-12-08 11:15:19 51°32.387 2°55.453 11.1441 3.876308 34.377933 -0.687152
2009-12-08 11:16:19 51°32.374 2°55.458 11.1441 3.876101 34.379969 -0.687152
2009-12-08 11:17:19 51°32.363 2°55.465 11.1435 3.876205 34.37936 -0.687152
2009-12-08 11:18:19 51°32.35 2°55.471 11.1469 3.876205 34.380177 -0.687152
2009-12-08 11:19:19 51°32.336 2°55.478 11.146 3.876412 34.379776 -0.687152
2009-12-08 11:20:19 51°32.324 2°55.487 11.1434 3.876619 34.379375 -0.687152
2009-12-08 11:21:19 51°32.31 2°55.494 11.1455 3.876412 34.380593 -0.687152
2009-12-08 11:22:19 51°32.294 2°55.501 11.1456 3.876412 34.379776 -0.687152
2009-12-08 11:23:19 51°32.279 2°55.507 11.1429 3.876101 34.377517 -0.687152
2009-12-08 11:24:19 51°32.264 2°55.513 11.1429 3.876205 34.376908 -0.687152
2009-12-08 11:25:19 51°32.248 2°55.521 11.148 3.876308 34.378751 -0.687152
2009-12-08 11:26:19 51°32.234 2°55.532 11.1488 3.876412 34.377324 -0.687152
2009-12-08 11:27:19 51°32.219 2°55.54 11.1478 3.876308 34.377116 -0.687152
2009-12-08 11:28:19 51°32.203 2°55.548 11.1477 3.876205 34.37936 -0.687152
2009-12-08 11:29:19 51°32.188 2°55.557 11.1449 3.876205 34.376908 -0.687152
2009-12-08 11:30:19 51°32.173 2°55.563 11.1458 3.876308 34.378751 -0.687152
2009-12-08 11:31:19 51°32.156 2°55.57 11.1406 3.87693 34.384086 -0.687152
2009-12-08 11:32:19 51°32.138 2°55.577 11.1389 3.876723 34.38367 -0.687152
2009-12-08 11:33:19 51°32.12 2°55.584 11.1373 3.876619 34.385097 -0.687152
2009-12-08 11:34:19 51°32.102 2°55.588 11.1373 3.876308 34.383656 -0.687152
2009-12-08 11:35:19 51°32.083 2°55.596 11.1358 3.876205 34.384265 -0.687152
2009-12-08 11:36:19 51°32.064 2°55.602 11.1328 3.876101 34.384057 -0.687152
2009-12-08 11:37:19 51°32.044 2°55.607 11.1315 3.875997 34.385485 -0.687152
2009-12-08 11:38:19 51°32.024 2°55.612 11.1293 3.87579 34.384251 -0.687152
2009-12-08 11:39:19 51°32.005 2°55.62 11.1262 3.875583 34.383835 -0.687152
2009-12-08 11:40:19 51°31.966 2°55.636 11.1272 3.875272 34.383212 -0.687152
2009-12-08 11:41:19 51°31.941 2°55.708 11.119 3.875064 34.384432 -0.687152
2009-12-08 11:42:19 51°31.982 2°55.734 11.1069 3.873924 34.384599 -0.652328
2009-12-08 11:43:19 51°32.081 2°55.679 11.1013 3.87268 34.381285 -0.652328
2009-12-08 11:44:19 51°32.2 2°55.629 11.1043 3.872058 34.380856 -0.652328
2009-12-08 11:45:19 51°32.322 2°55.611 11.1104 3.872265 34.379635 -0.652328
2009-12-08 11:46:19 51°32.44 2°55.57 11.117 3.872887 34.38252 -0.652328
2009-12-08 11:47:19 51°32.542 2°55.476 11.1286 3.873613 34.380702 -0.652328
2009-12-08 11:48:19 51°32.591 2°55.4 11.1343 3.874235 34.377042 -0.652328
2009-12-08 11:49:19 51°32.588 2°55.342 11.1451 3.874753 34.373994 -0.652328
2009-12-08 11:50:19 51°32.561 2°55.32 11.1421 3.875375 34.372791 -0.652328
2009-12-08 11:51:19 51°32.535 2°55.318 11.1472 3.875479 34.371364 -0.652328
2009-12-08 11:52:19 51°32.512 2°55.323 11.1583 3.875582 34.369121 -0.652328
2009-12-08 11:53:18 51°32.491 2°55.326 11.1534 3.875582 34.365853 -0.687152
2009-12-08 11:54:19 51°32.472 2°55.332 11.1594 3.875686 34.361977 -0.652328
2009-12-08 11:55:19 51°32.454 2°55.338 11.1636 3.875997 34.363419 -0.652328
2009-12-08 11:56:19 51°32.434 2°55.345 11.1642 3.876619 34.360587 -0.652328
2009-12-08 11:57:19 51°32.414 2°55.351 11.1629 3.876308 34.362411 -0.652328
2009-12-08 11:58:19 51°32.394 2°55.358 11.1618 3.876308 34.360778 -0.652328
2009-12-08 11:59:19 51°32.376 2°55.365 11.1591 3.876412 34.36017 -0.687152
2009-12-08 12:00:18 51°32.358 2°55.371 11.1641 3.876308 34.361594 -0.687152
2009-12-08 12:01:19 51°32.34 2°55.377 11.1624 3.876619 34.363036 -0.652328
2009-12-08 12:02:19 51°32.319 2°55.38 11.1637 3.876826 34.365086 -0.687152
2009-12-08 12:03:19 51°32.298 2°55.384 11.1618 3.876619 34.36222 -0.687152
2009-12-08 12:04:19 51°32.277 2°55.389 11.1593 3.876826 34.365086 -0.687152
2009-12-08 12:05:19 51°32.258 2°55.397 11.1629 3.876619 34.363036 -0.687152
2009-12-08 12:06:19 51°32.241 2°55.404 11.163 3.876515 34.364461 -0.687152
2009-12-08 12:07:19 51°32.222 2°55.41 11.16 3.87693 34.365294 -0.687152
2009-12-08 12:08:19 51°32.199 2°55.414 11.1573 3.876619 34.366302 -0.687152
2009-12-08 12:09:19 51°32.17 2°55.419 11.1544 3.876516 34.367728 -0.687152
2009-12-08 12:10:19 51°32.109 2°55.393 11.1552 3.876204 34.368736 -0.652328
2009-12-08 12:11:19 51°32.074 2°55.289 11.1513 3.876412 34.370787 -0.687152
2009-12-08 12:12:19 51°32.139 2°55.204 11.1442 3.875997 34.377309 -0.652328
2009-12-08 12:13:19 51°32.265 2°55.092 11.1501 3.875272 34.375852 -0.652328
2009-12-08 12:14:19 51°32.406 2°54.963 11.1668 3.875479 34.372181 -0.652328
2009-12-08 12:15:19 51°32.547 2°54.831 11.1789 3.875997 34.365869 -0.652328
2009-12-08 12:16:19 51°32.698 2°54.747 11.1937 3.877137 34.357548 -0.652328
2009-12-08 12:17:19 51°32.857 2°54.745 11.2163 3.878381 34.357602 -0.617504
2009-12-08 12:18:19 51°33.012 2°54.791 11.2212 3.879937 34.356653 -0.652328
2009-12-08 12:19:19 51°33.166 2°54.857 11.2259 3.881181 34.360786 -0.617504
2009-12-08 12:20:19 51°33.306 2°54.973 11.2246 3.88284 34.374719 -0.617504
2009-12-08 12:21:19 51°33.381 2°55.179 11.2308 3.883773 34.376592 -0.617504
2009-12-08 12:22:19 51°33.328 2°55.434 11.2224 3.885224 34.397449 -0.652328
2009-12-08 12:23:19 51°33.3 2°55.567 11.2169 3.884913 34.396825 -0.617504
2009-12-08 12:24:19 51°33.287 2°55.628 11.2185 3.884602 34.397834 -0.617504
2009-12-08 12:25:19 51°33.275 2°55.662 11.221 3.884602 34.397834 -0.617504
2009-12-08 12:26:19 51°33.263 2°55.679 11.2225 3.884499 34.39681 -0.652328
2009-12-08 12:27:19 51°33.248 2°55.686 11.2186 3.884395 34.395786 -0.617504
2009-12-08 12:28:19 51°33.231 2°55.688 11.2197 3.884188 34.394554 -0.652328
2009-12-08 12:29:19 51°33.213 2°55.691 11.2204 3.884084 34.393531 -0.617504
2009-12-08 12:30:19 51°33.204 2°55.695 11.224 3.884188 34.39129 -0.652328
2009-12-08 12:31:19 51°33.21 2°55.701 11.2249 3.884499 34.391914 -0.652328
2009-12-08 12:32:35 51°33.284 2°55.737 11.2248 3.883462 34.385755 -0.652328
2009-12-08 12:33:47 51°33.372 2°55.899 11.2207 3.883877 34.390667 -0.652328
2009-12-08 12:34:47 51°33.377 2°56.006 11.2157 3.883877 34.395563 -0.617504
2009-12-08 12:35:47 51°33.369 2°56.06 11.2178 3.88398 34.394955 -0.652328
2009-12-08 12:36:47 51°33.359 2°56.085 11.2125 3.883566 34.393307 -0.652328
2009-12-08 12:37:47 51°33.347 2°56.096 11.214 3.883358 34.392076 -0.652328
2009-12-08 12:38:47 51°33.331 2°56.097 11.2102 3.883358 34.393708 -0.617504
2009-12-08 12:39:47 51°33.312 2°56.097 11.214 3.883047 34.392268 -0.617504
2009-12-08 12:40:47 51°33.293 2°56.098 11.2148 3.883047 34.388187 -0.652328
2009-12-08 12:41:47 51°33.273 2°56.099 11.2185 3.883151 34.389211 -0.652328
2009-12-08 12:42:47 51°33.254 2°56.099 11.221 3.883358 34.390443 -0.652328
2009-12-08 12:43:47 51°33.235 2°56.1 11.2248 3.883566 34.389227 -0.652328
2009-12-08 12:44:47 51°33.213 2°56.104 11.2212 3.883254 34.387787 -0.652328
2009-12-08 12:45:47 51°33.19 2°56.106 11.2141 3.882943 34.386347 -0.652328
2009-12-08 12:46:47 51°33.165 2°56.108 11.2194 3.883047 34.388187 -0.652328
2009-12-08 12:47:47 51°33.141 2°56.11 11.2127 3.882529 34.385515 -0.652328
2009-12-08 12:48:47 51°33.116 2°56.111 11.2134 3.882321 34.384283 -0.652328
2009-12-08 12:49:47 51°33.092 2°56.113 11.2102 3.882425 34.383675 -0.652328
2009-12-08 12:50:47 51°33.075 2°56.119 11.2109 3.881699 34.378954 -0.652328
2009-12-08 12:51:47 51°33.111 2°56.144 11.2173 3.882425 34.385307 -0.652328
2009-12-08 12:52:47 51°33.188 2°56.217 11.2072 3.881181 34.37465 -0.652328
2009-12-08 12:53:47 51°33.274 2°56.276 11.2154 3.881803 34.384059 -0.617504
2009-12-08 12:54:47 51°33.318 2°56.288 11.2049 3.880974 34.375049 -0.617504
2009-12-08 12:55:47 51°33.325 2°56.29 11.2055 3.881388 34.383227 -0.617504
2009-12-08 12:56:47 51°33.315 2°56.291 11.2064 3.881077 34.377706 -0.617504
2009-12-08 12:57:47 51°33.299 2°56.29 11.2057 3.881388 34.379146 -0.617504
2009-12-08 12:58:47 51°33.28 2°56.294 11.2049 3.880974 34.379946 -0.617504
2009-12-08 12:59:47 51°33.259 2°56.299 11.2041 3.881388 34.381595 -0.617504
2009-12-08 13:00:47 51°33.239 2°56.303 11.2061 3.881803 34.385692 -0.617504
2009-12-08 13:01:47 51°33.218 2°56.307 11.2037 3.880351 34.371352 -0.652328
2009-12-08 13:02:47 51°33.197 2°56.309 11.2065 3.880663 34.377689 -0.652328
2009-12-08 13:03:47 51°33.175 2°56.311 11.2049 3.881077 34.383419 -0.652328
2009-12-08 13:04:47 51°33.153 2°56.316 11.2012 3.88087 34.380554 -0.652328
2009-12-08 13:05:47 51°33.13 2°56.318 11.1992 3.879833 34.373575 -0.652328
2009-12-08 13:06:47 51°33.108 2°56.322 11.1965 3.879729 34.372551 -0.652328
2009-12-08 13:07:47 51°33.087 2°56.328 11.1995 3.880352 34.38033 -0.652328
2009-12-08 13:08:47 51°33.066 2°56.331 11.1969 3.879107 34.368853 -0.652328
2009-12-08 13:09:47 51°33.046 2°56.334 11.1977 3.879626 34.374791 -0.652328
2009-12-08 13:10:47 51°33.025 2°56.337 11.2017 3.878693 34.364755 -0.652328
2009-12-08 13:11:47 51°33.002 2°56.344 11.1992 3.879004 34.367828 -0.652328
2009-12-08 13:12:47 51°32.978 2°56.348 11.1943 3.879315 34.371718 -0.652328
2009-12-08 13:13:47 51°32.951 2°56.352 11.1892 3.881077 34.392402 -0.652328
2009-12-08 13:14:47 51°32.923 2°56.353 11.1936 3.880974 34.391377 -0.652328
2009-12-08 13:15:47 51°32.936 2°56.386 11.1965 3.881181 34.390976 -0.652328
2009-12-08 13:16:47 51°33.005 2°56.502 11.194 3.880974 34.388927 -0.617504
2009-12-08 13:17:47 51°33.099 2°56.59 11.1916 3.880559 34.388095 -0.617504
2009-12-08 13:18:47 51°33.19 2°56.635 11.1885 3.880559 34.388912 -0.617504
2009-12-08 13:19:47 51°33.217 2°56.641 11.1897 3.880352 34.389313 -0.617504
2009-12-08 13:20:47 51°33.215 2°56.643 11.1894 3.880663 34.38912 -0.617504
2009-12-08 13:21:47 51°33.203 2°56.645 11.1896 3.880663 34.389937 -0.617504
2009-12-08 13:22:47 51°33.186 2°56.649 11.1945 3.880766 34.390962 -0.617504
2009-12-08 13:23:47 51°33.168 2°56.655 11.2026 3.880974 34.391377 -0.617504
2009-12-08 13:24:47 51°33.149 2°56.662 11.1978 3.881181 34.39261 -0.617504
2009-12-08 13:25:47 51°33.126 2°56.67 11.1924 3.881181 34.393427 -0.617504
2009-12-08 13:26:48 51°33.103 2°56.677 11.1949 3.881077 34.392402 -0.617504
2009-12-08 13:27:48 51°33.078 2°56.682 11.1896 3.881181 34.393427 -0.617504
2009-12-08 13:28:48 51°33.053 2°56.685 11.1918 3.88087 34.392803 -0.617504
2009-12-08 13:29:48 51°33.028 2°56.691 11.1925 3.880766 34.392595 -0.617504
2009-12-08 13:30:48 51°33.006 2°56.697 11.1884 3.880663 34.392387 -0.617504
2009-12-08 13:31:48 51°32.984 2°56.704 11.1913 3.880559 34.392997 -0.652328
2009-12-08 13:32:48 51°32.963 2°56.711 11.1829 3.880248 34.392373 -0.652328
2009-12-08 13:33:48 51°32.941 2°56.716 11.184 3.880144 34.391348 -0.617504
2009-12-08 13:34:48 51°32.919 2°56.723 11.1853 3.880352 34.390947 -0.617504
2009-12-08 13:35:48 51°32.899 2°56.729 11.1811 3.880144 34.390531 -0.617504
2009-12-08 13:36:48 51°32.88 2°56.736 11.1801 3.879833 34.389908 -0.617504
2009-12-08 13:37:48 51°32.862 2°56.743 11.1809 3.87973 34.3897 -0.617504
2009-12-08 13:38:48 51°32.845 2°56.749 11.178 3.879833 34.389091 -0.652328
2009-12-08 13:39:48 51°32.828 2°56.754 11.1808 3.879522 34.388467 -0.617504
2009-12-08 13:40:48 51°32.81 2°56.761 11.1778 3.879833 34.388274 -0.652328
2009-12-08 13:41:48 51°32.791 2°56.769 11.1787 3.879419 34.388259 -0.652328
2009-12-08 13:42:48 51°32.777 2°56.778 11.1764 3.879315 34.388868 -0.652328
2009-12-08 13:43:48 51°32.839 2°56.781 11.1801 3.879004 34.388245 -0.617504
2009-12-08 13:44:48 51°32.956 2°56.75 11.177 3.879108 34.387635 -0.617504
2009-12-08 13:45:48 51°33.081 2°56.715 11.1784 3.878693 34.385169 -0.58268
2009-12-08 13:46:48 51°33.171 2°56.679 11.1808 3.879419 34.389076 -0.58268
2009-12-08 13:47:48 51°33.184 2°56.659 11.1855 3.879626 34.386224 -0.58268
2009-12-08 13:48:48 51°33.176 2°56.658 11.1858 3.880041 34.388689 -0.617504
2009-12-08 13:49:48 51°33.16 2°56.666 11.1868 3.879626 34.385407 -0.58268
2009-12-08 13:50:48 51°33.142 2°56.673 11.1907 3.879522 34.384382 -0.58268
2009-12-08 13:51:48 51°33.122 2°56.682 11.1857 3.880352 34.386863 -0.617504
2009-12-08 13:52:48 51°33.101 2°56.691 11.1877 3.879937 34.385214 -0.617504
2009-12-08 13:53:48 51°33.08 2°56.699 11.1886 3.880352 34.39013 -0.617504
2009-12-08 13:54:48 51°33.063 2°56.708 11.1894 3.879833 34.383373 -0.617504
2009-12-08 13:55:48 51°33.045 2°56.717 11.1896 3.880352 34.386863 -0.617504
2009-12-08 13:56:48 51°33.027 2°56.726 11.1845 3.88087 34.398523 -0.617504
2009-12-08 13:57:48 51°33.007 2°56.734 11.1832 3.880766 34.397498 -0.652328
2009-12-08 13:58:48 51°32.986 2°56.741 11.1817 3.880455 34.397692 -0.617504
2009-12-08 13:59:48 51°32.967 2°56.75 11.1827 3.880559 34.395448 -0.652328
2009-12-08 14:00:48 51°32.947 2°56.76 11.1868 3.880248 34.395642 -0.617504
2009-12-08 14:01:48 51°32.927 2°56.769 11.1805 3.880455 34.396057 -0.617504
2009-12-08 14:02:48 51°32.908 2°56.778 11.1779 3.880144 34.394617 -0.617504
2009-12-08 14:03:48 51°32.887 2°56.785 11.1729 3.879937 34.395018 -0.617504
2009-12-08 14:04:48 51°32.867 2°56.792 11.178 3.87973 34.392968 -0.617504
2009-12-08 14:05:48 51°32.846 2°56.801 11.175 3.879626 34.39276 -0.617504
2009-12-08 14:06:48 51°32.826 2°56.81 11.1732 3.879522 34.392553 -0.617504
2009-12-08 14:07:48 51°32.806 2°56.82 11.1803 3.879315 34.392137 -0.652328
2009-12-08 14:08:48 51°32.789 2°56.83 11.171 3.879522 34.391735 -0.617504
2009-12-08 14:09:48 51°32.771 2°56.841 11.1738 3.879004 34.390696 -0.617504
2009-12-08 14:10:48 51°32.761 2°56.853 11.1714 3.879108 34.390904 -0.652328
2009-12-08 14:11:48 51°32.833 2°56.851 11.1733 3.878797 34.390281 -0.617504
2009-12-08 14:12:48 51°32.968 2°56.831 11.1747 3.878797 34.388646 -0.58268
2009-12-08 14:13:48 51°33.109 2°56.807 11.1755 3.8789 34.390488 -0.58268
2009-12-08 14:14:48 51°33.174 2°56.785 11.1754 3.879211 34.391929 -0.58268
2009-12-08 14:15:48 51°33.179 2°56.781 11.1781 3.879522 34.39337 -0.58268
2009-12-08 14:16:48 51°33.17 2°56.788 11.1727 3.879522 34.39337 -0.58268
2009-12-08 14:17:48 51°33.155 2°56.8 11.1796 3.879937 34.394201 -0.58268
2009-12-08 14:18:48 51°33.137 2°56.812 11.1833 3.880352 34.395032 -0.617504
2009-12-08 14:19:48 51°33.119 2°56.823 11.1814 3.880663 34.396473 -0.617504
2009-12-08 14:20:48 51°33.101 2°56.837 11.1884 3.880352 34.396667 -0.617504
2009-12-08 14:21:48 51°33.086 2°56.847 11.1845 3.880766 34.397498 -0.617504
2009-12-08 14:22:48 51°33.07 2°56.859 11.1816 3.880663 34.39729 -0.617504
2009-12-08 14:23:48 51°33.056 2°56.874 11.1778 3.880144 34.397068 -0.617504
2009-12-08 14:24:48 51°33.041 2°56.885 11.1778 3.880041 34.396861 -0.617504
2009-12-08 14:25:48 51°33.027 2°56.9 11.1714 3.879937 34.395836 -0.617504
2009-12-08 14:26:48 51°33.011 2°56.912 11.1714 3.879522 34.396639 -0.617504
2009-12-08 14:27:48 51°32.994 2°56.927 11.1754 3.879626 34.39603 -0.617504
2009-12-08 14:28:48 51°32.983 2°56.945 11.17 3.879419 34.394797 -0.617504
2009-12-08 14:29:48 51°32.969 2°56.961 11.1651 3.879315 34.394589 -0.617504
2009-12-08 14:30:48 51°32.955 2°56.976 11.1708 3.879004 34.393966 -0.617504
2009-12-08 14:31:48 51°32.939 2°56.991 11.1708 3.879004 34.393148 -0.617504
2009-12-08 14:32:48 51°32.924 2°57.008 11.1701 3.878797 34.39355 -0.617504
2009-12-08 14:33:48 51°32.909 2°57.027 11.164 3.8789 34.392941 -0.617504
2009-12-08 14:34:48 51°32.895 2°57.045 11.163 3.878382 34.393537 -0.617504
2009-12-08 14:36:00 51°32.877 2°57.065 11.1606 3.878175 34.393939 -0.617504
2009-12-08 14:37:15 51°32.857 2°57.086 11.1588 3.87776 34.39229 -0.617504
2009-12-08 14:38:15 51°32.842 2°57.106 11.1624 3.87776 34.391472 -0.617504
2009-12-08 14:39:15 51°32.828 2°57.124 11.1585 3.878071 34.391278 -0.617504
2009-12-08 14:40:15 51°32.812 2°57.144 11.1584 3.87776 34.391472 -0.617504
2009-12-08 14:41:15 51°32.797 2°57.164 11.159 3.877553 34.391874 -0.617504
2009-12-08 14:42:15 51°32.781 2°57.185 11.1583 3.877449 34.391666 -0.617504
2009-12-08 14:43:15 51°32.766 2°57.207 11.1589 3.877242 34.391251 -0.617504
2009-12-08 14:44:15 51°32.754 2°57.23 11.1543 3.877345 34.390641 -0.617504
2009-12-08 14:45:15 51°32.742 2°57.252 11.1543 3.877138 34.391043 -0.617504
2009-12-08 14:46:15 51°32.729 2°57.273 11.1485 3.877034 34.390017 -0.617504
2009-12-08 14:47:15 51°32.717 2°57.295 11.1517 3.87693 34.390627 -0.617504
2009-12-08 14:48:15 51°32.706 2°57.318 11.1545 3.876827 34.391237 -0.617504
2009-12-08 14:49:15 51°32.694 2°57.339 11.1464 3.876723 34.39103 -0.617504
2009-12-08 14:50:15 51°32.682 2°57.365 11.1481 3.876516 34.390614 -0.617504
2009-12-08 14:51:15 51°32.667 2°57.39 11.1435 3.876205 34.389172 -0.617504
2009-12-08 14:52:15 51°32.655 2°57.416 11.1434 3.875997 34.386303 -0.617504
2009-12-08 14:53:15 51°32.646 2°57.442 11.1456 3.87579 34.384251 -0.617504
2009-12-08 14:54:15 51°32.642 2°57.467 11.1436 3.875375 34.382602 -0.617504
2009-12-08 14:55:15 51°32.68 2°57.461 11.151 3.875375 34.380966 -0.617504
2009-12-08 14:56:15 51°32.746 2°57.372 11.1447 3.875583 34.3822 -0.58268
2009-12-08 14:57:15 51°32.809 2°57.204 11.1488 3.875479 34.383628 -0.58268
2009-12-08 14:58:15 51°32.871 2°57.013 11.1513 3.875894 34.383642 -0.58268
2009-12-08 14:59:15 51°32.948 2°56.837 11.1603 3.876412 34.382228 -0.58268
2009-12-08 15:00:15 51°33.002 2°56.777 11.1668 3.877449 34.385943 -0.58268
2009-12-08 15:01:15 51°33.034 2°56.765 11.1713 3.878278 34.387606 -0.58268
2009-12-08 15:02:15 51°33.059 2°56.769 11.1803 3.878382 34.385363 -0.58268
2009-12-08 15:03:15 51°33.078 2°56.778 11.1819 3.87973 34.392151 -0.58268
2009-12-08 15:04:15 51°33.097 2°56.789 11.1864 3.880248 34.395642 -0.58268
2009-12-08 15:05:15 51°33.115 2°56.796 11.1863 3.880144 34.3938 -0.58268
2009-12-08 15:06:15 51°33.131 2°56.805 11.1873 3.881181 34.401597 -0.58268
2009-12-08 15:07:15 51°33.155 2°56.804 11.1878 3.881389 34.401195 -0.617504
2009-12-08 15:08:15 51°33.174 2°56.742 11.1908 3.881181 34.399963 -0.58268
2009-12-08 15:09:15 51°33.119 2°56.705 11.1934 3.883462 34.416788 -0.58268
2009-12-08 15:10:15 51°33.043 2°56.667 11.1936 3.884292 34.420081 -0.58268
2009-12-08 15:11:15 51°32.958 2°56.628 11.1978 3.884395 34.421924 -0.58268
2009-12-08 15:12:15 51°32.806 2°56.522 11.2017 3.884914 34.42296 -0.58268
2009-12-08 15:13:16 51°32.65 2°56.389 11.2079 3.885536 34.424203 -0.58268
2009-12-08 15:14:15 51°32.509 2°56.229 11.2026 3.885951 34.425849 -0.58268
2009-12-08 15:15:15 51°32.348 2°56.111 11.2091 3.886054 34.426874 -0.58268
2009-12-08 15:16:15 51°32.24 2°55.968 11.2075 3.88678 34.429958 -0.58268
2009-12-08 15:17:15 51°32.205 2°55.877 11.2056 3.886884 34.4318 -0.58268
2009-12-08 15:18:15 51°32.191 2°55.824 11.2128 3.886676 34.432203 -0.58268
2009-12-08 15:19:15 51°32.198 2°55.833 11.2133 3.887091 34.433849 -0.58268
2009-12-08 15:20:15 51°32.202 2°55.86 11.2144 3.887091 34.434666 -0.58268
2009-12-08 15:21:15 51°32.201 2°55.896 11.2178 3.887609 34.436519 -0.58268
2009-12-08 15:22:15 51°32.198 2°55.934 11.225 3.887713 34.435091 -0.58268
2009-12-08 15:23:15 51°32.195 2°55.971 11.2211 3.888335 34.437968 -0.58268
2009-12-08 15:24:15 51°32.223 2°55.969 11.2225 3.888439 34.43654 -0.58268
2009-12-08 15:25:15 51°32.217 2°55.928 11.2234 3.888439 34.43654 -0.58268
2009-12-08 15:26:15 51°32.195 2°55.944 11.2206 3.888854 34.438185 -0.58268
2009-12-08 15:27:15 51°32.181 2°55.979 11.2223 3.888957 34.437575 -0.617504
2009-12-08 15:28:15 51°32.173 2°56.019 11.2229 3.888854 34.435734 -0.58268
2009-12-08 15:29:15 51°32.166 2°56.061 11.2245 3.889268 34.438196 -0.58268
2009-12-08 15:30:15 51°32.157 2°56.105 11.2212 3.889372 34.437586 -0.617504
2009-12-08 15:31:15 51°32.153 2°56.144 11.2251 3.889372 34.437586 -0.617504
2009-12-08 15:32:15 51°32.15 2°56.186 11.2261 3.889268 34.439013 -0.617504
2009-12-08 15:33:15 51°32.148 2°56.229 11.2318 3.889372 34.438403 -0.617504
2009-12-08 15:34:14 51°32.146 2°56.27 11.2314 3.889683 34.43739 -0.58268
2009-12-08 15:35:14 51°32.143 2°56.312 11.2336 3.889372 34.435136 -0.617504
2009-12-08 15:36:14 51°32.129 2°56.357 11.2314 3.88989 34.438621 -0.617504
2009-12-08 15:37:15 51°32.074 2°56.39 11.2306 3.889683 34.436573 -0.617504
2009-12-08 15:38:14 51°31.974 2°56.328 11.2158 3.889061 34.434514 -0.58268
2009-12-08 15:39:15 51°31.807 2°56.267 11.2143 3.888231 34.433675 -0.58268
2009-12-08 15:40:14 51°31.636 2°56.218 11.2093 3.887609 34.430798 -0.58268
2009-12-08 15:41:15 51°31.459 2°56.167 11.2042 3.886261 34.422386 -0.58268
2009-12-08 15:42:14 51°31.287 2°56.113 11.2024 3.885328 34.419703 -0.547855
2009-12-08 15:43:15 51°31.115 2°56.055 11.1953 3.884188 34.408435 -0.58268
2009-12-08 15:44:14 51°30.949 2°55.993 11.2011 3.883047 34.40125 -0.58268
2009-12-08 15:45:14 51°30.78 2°55.928 11.1992 3.881907 34.391615 -0.58268
2009-12-08 15:46:14 51°30.616 2°55.866 11.1928 3.88087 34.382187 -0.58268
2009-12-08 15:47:14 51°30.452 2°55.808 11.1762 3.880455 34.381355 -0.58268
2009-12-08 15:48:14 51°30.285 2°55.747 11.1656 3.878382 34.376376 -0.58268
2009-12-08 15:49:14 51°30.113 2°55.696 11.1464 3.876827 34.376522 -0.58268
2009-12-08 15:50:14 51°29.943 2°55.647 11.1183 3.875272 34.377487 -0.58268
2009-12-08 15:51:14 51°29.775 2°55.595 11.0721 3.872058 34.376763 -0.58268
2009-12-08 15:52:14 51°29.606 2°55.545 11.05 3.867911 34.369257 -0.58268
2009-12-08 15:53:15 51°29.435 2°55.491 11.0004 3.864179 34.36504 -0.547855
2009-12-08 15:54:14 51°29.269 2°55.435 10.977 3.860135 34.356917 -0.58268
2009-12-08 15:55:15 51°29.097 2°55.377 10.9592 3.857129 34.350873 -0.58268
2009-12-08 15:56:14 51°28.932 2°55.324 10.9535 3.855159 34.346912 -0.547855
2009-12-08 15:57:14 51°28.763 2°55.267 10.9474 3.853812 34.340094 -0.58268
2009-12-08 15:58:14 51°28.595 2°55.212 10.9438 3.853293 34.338229 -0.58268
2009-12-08 15:59:14 51°28.428 2°55.155 10.9363 3.852256 34.330392 -0.58268
2009-12-08 16:00:14 51°28.262 2°55.101 10.9225 3.850494 34.321913 -0.547855
2009-12-08 16:01:14 51°28.097 2°55.046 10.8982 3.847799 34.314835 -0.547855
2009-12-08 16:02:15 51°27.93 2°54.99 10.88 3.844585 34.302597 -0.58268
2009-12-08 16:03:14 51°27.77 2°54.934 10.8732 3.84303 34.300279 -0.547855
2009-12-08 16:04:15 51°27.602 2°54.884 10.8834 3.842511 34.292655 -0.547855
2009-12-08 16:05:14 51°27.441 2°54.833 10.8858 3.842408 34.290801 -0.547855
2009-12-08 16:06:15 51°27.273 2°54.782 10.8834 3.8422 34.285451 -0.58268
2009-12-08 16:07:14 51°27.112 2°54.732 10.8786 3.841371 34.280487 -0.547855
2009-12-08 16:08:14 51°26.949 2°54.682 10.8667 3.839505 34.274245 -0.547855
2009-12-08 16:09:14 51°26.787 2°54.634 10.8541 3.838365 34.271936 -0.58268
2009-12-08 16:10:14 51°26.623 2°54.586 10.8564 3.837742 34.267389 -0.58268
2009-12-08 16:11:15 51°26.457 2°54.538 10.8709 0.553559 3.872827 -0.58268
2009-12-08 16:12:14 51°26.296 2°54.494 10.8668 0.114249 0.731614 -0.547855
2009-12-08 16:13:15 51°26.13 2°54.445 10.8436 0.062894 0.393169 -0.58268
2009-12-08 16:14:14 51°25.968 2°54.393 10.83 0.05394 0.332552 -0.58268
2009-12-08 16:15:15 51°25.801 2°54.339 10.8343 0.052705 0.319504 -0.58268
2009-12-08 16:16:14 51°25.639 2°54.285 10.8119 0.051882 0.314181 -0.58268
2009-12-08 16:17:14 51°25.472 2°54.228 10.7865 0.051162 0.311716 -0.58268
2009-12-08 16:18:14 51°25.306 2°54.174 10.7691 0.050441 0.308803 -0.58268
2009-12-08 16:19:14 51°25.142 2°54.117 10.7507 0.050132 0.308935 -0.58268
2009-12-08 16:20:14 51°24.977 2°54.06 10.7476 0.049824 0.309287 -0.58268
2009-12-08 16:21:14 51°24.813 2°54.007 10.7467 0.049412 0.308444 -0.547855
2009-12-08 16:22:15 51°24.648 2°53.947 10.7819 0.049001 0.307594 -0.58268
2009-12-08 16:23:14 51°24.491 2°53.892 10.8061 0.048692 0.307374 -0.58268
2009-12-08 16:24:15 51°24.325 2°53.84 10.8224 0.048383 0.306685 -0.547855
2009-12-08 16:25:14 51°24.164 2°53.786 10.8432 0.048074 0.305548 -0.58268
2009-12-08 16:26:14 51°24.003 2°53.738 10.8307 0.047972 0.305646 -0.547855
2009-12-08 16:27:14 51°23.841 2°53.685 10.817 0.047766 0.304955 -0.58268
2009-12-08 16:28:14 51°23.681 2°53.633 10.804 0.047663 0.304827 -0.58268
2009-12-08 16:29:15 51°23.518 2°53.581 10.7771 0.04756 0.304626 -0.547855
2009-12-08 16:30:14 51°23.362 2°53.529 10.7499 0.047457 0.304325 -0.58268
2009-12-08 16:31:15 51°23.196 2°53.514 10.7239 0.047457 0.304598 -0.547855
2009-12-08 16:32:14 51°23.03 2°53.549 10.6828 0.047354 0.304109 -0.58268
2009-12-08 16:33:15 51°22.857 2°53.59 11.0577 0.047354 0.304276 -0.234439
2009-12-08 16:34:14 51°22.689 2°53.62 11.2713 0.047354 0.304236 -0.93092
2009-12-08 16:35:14 51°22.517 2°53.642 11.3903 0.047457 0.304905 -1.070216
2009-12-08 16:36:14 51°22.345 2°53.662 11.5266 0.047457 0.304925 -1.035392
2009-12-08 16:37:14 51°22.176 2°53.683 11.6628 0.047663 0.306283 -1.000568
2009-12-08 16:38:14 51°22.006 2°53.675 11.7859 0.047869 0.307655 -0.93092
2009-12-08 16:39:14 51°21.838 2°53.647 11.9093 0.048075 0.308973 -0.861272
2009-12-08 16:40:26 51°21.637 2°53.603 12.0543 0.048486 0.311609 -0.791624
2009-12-08 16:41:21 51°21.485 2°53.567 12.163 0.048692 0.312927 -0.721976
2009-12-08 16:42:26 51°21.304 2°53.525 12.2936 0.049001 0.314914 -0.687152
2009-12-08 16:43:26 51°21.14 2°53.488 12.4126 0.049309 0.3169 -0.617504
2009-12-08 16:44:26 51°20.973 2°53.448 12.5148 0.049412 0.317534 -0.617504
2009-12-08 16:45:26 51°20.806 2°53.408 12.6259 0.049618 0.318859 -0.617504
2009-12-08 16:46:26 51°20.641 2°53.365 12.7451 0.049721 0.3195 -0.58268
2009-12-08 16:47:26 51°20.477 2°53.323 12.8499 0.049824 0.320154 -0.58268
2009-12-08 16:48:26 51°20.316 2°53.264 12.9377 0.049927 0.320767 -0.547855
2009-12-08 16:49:26 51°20.155 2°53.201 13.0196 0.05003 0.32138 -0.547855
2009-12-08 16:50:26 51°19.995 2°53.142 13.1345 0.050133 0.322027 -0.547855
2009-12-08 16:51:26 51°19.834 2°53.084 13.2172 0.050133 0.321964 -0.547855
2009-12-08 16:52:26 51°19.673 2°53.026 13.3128 0.050236 0.322576 -0.513031
2009-12-08 16:53:26 51°19.514 2°52.968 13.3883 0.050236 0.322533 -0.547855
2009-12-08 16:54:26 51°19.355 2°52.911 13.5103 0.050236 0.322484 -0.513031
2009-12-08 16:55:26 51°19.196 2°52.855 13.585 0.050236 0.322434 -0.513031
2009-12-08 16:56:26 51°19.038 2°52.797 13.6545 0.050339 0.323074 -0.513031
2009-12-08 16:57:26 51°18.881 2°52.74 13.7319 0.050339 0.323046 -0.513031
2009-12-08 16:58:26 51°18.721 2°52.68 13.8103 0.050339 0.323004 -0.513031
2009-12-08 16:59:26 51°18.562 2°52.619 13.9044 0.050339 0.32294 -0.513031
2009-12-08 17:00:25 51°18.406 2°52.559 14.001 0.050339 0.322905 -0.513031
2009-12-08 17:01:26 51°18.246 2°52.495 14.066 0.050339 0.322876 -0.513031
2009-12-08 17:02:26 51°18.086 2°52.44 14.1135 0.050339 0.322827 -0.513031
2009-12-08 17:03:26 51°17.926 2°52.389 14.1992 0.050339 0.322792 -0.513031
2009-12-08 17:04:26 51°17.769 2°52.336 14.2983 0.050339 0.322749 -0.513031
2009-12-08 17:05:26 51°17.609 2°52.284 14.3875 0.050339 0.322714 -0.513031
2009-12-08 17:06:26 51°17.445 2°52.254 14.4535 0.050236 0.32199 -0.513031
2009-12-08 17:07:26 51°17.278 2°52.256 14.4882 0.050236 0.321948 -0.513031
2009-12-08 17:08:26 51°17.109 2°52.294 14.5737 0.050236 0.321906 -0.478207
2009-12-08 17:09:25 51°16.946 2°52.368 14.6556 0.050236 0.321871 -0.478207
2009-12-08 17:10:26 51°16.783 2°52.473 14.7251 0.050236 0.321864 -0.478207
2009-12-08 17:11:26 51°16.62 2°52.582 14.7379 0.050133 0.321057 -0.478207
2009-12-08 17:12:26 51°16.459 2°52.701 14.8468 0.050133 0.321071 -0.478207
2009-12-08 17:13:26 51°16.298 2°52.821 14.9397 0.050133 0.321042 -0.478207
2009-12-08 17:14:26 51°16.136 2°52.935 14.9874 0.050133 0.321014 -0.478207
2009-12-08 17:15:26 51°16.007 2°53.04 15.0323 0.050133 0.320937 -0.478207
2009-12-08 17:16:26 51°15.922 2°53.176 15.1081 0.050133 0.320867 -0.478207
2009-12-08 17:17:26 51°15.846 2°53.343 15.1382 0.05003 0.320138 -0.478207
2009-12-08 17:18:25 51°15.757 2°53.51 15.2008 0.05003 0.320103 -0.478207
2009-12-08 17:19:26 51°15.659 2°53.685 15.2746 0.05003 0.320068 -0.478207
2009-12-08 17:20:26 51°15.556 2°53.858 15.3629 0.049927 0.319333 -0.443383
2009-12-08 17:21:26 51°15.45 2°54.029 15.4052 0.049927 0.319277 -0.478207
2009-12-08 17:22:26 51°15.35 2°54.192 15.4093 0.049927 0.319249 -0.478207
2009-12-08 17:23:26 51°15.267 2°54.334 15.5039 0.049927 0.319215 -0.443383
2009-12-08 17:24:26 51°15.215 2°54.441 15.5572 0.049927 0.31918 -0.478207
2009-12-08 17:25:25 51°15.18 2°54.525 15.6517 0.049927 0.319145 -0.443383
2009-12-08 17:26:26 51°15.153 2°54.603 15.6582 0.049927 0.319103 -0.443383
2009-12-08 17:27:25 51°15.116 2°54.672 15.723 0.049927 0.319041 -0.478207
2009-12-08 17:28:26 51°15.06 2°54.736 15.7698 0.049927 0.318999 -0.443383
2009-12-08 17:29:25 51°14.999 2°54.801 15.8305 0.049824 0.318286 -0.478207
2009-12-08 17:30:26 51°14.879 2°54.878 15.8882 0.049824 0.318251 -0.478207
2009-12-08 17:31:26 51°14.715 2°54.956 15.9172 0.049824 0.31823 -0.443383
2009-12-08 17:32:26 51°14.55 2°55.011 15.9812 0.049824 0.318189 -0.478207
2009-12-08 17:33:26 51°14.389 2°55.069 16.0207 0.049824 0.318189 -0.478207
2009-12-08 17:34:26 51°14.258 2°55.26 16.0103 0.049824 0.318147 -0.478207
2009-12-08 17:35:26 51°14.117 2°55.413 16.1029 0.049824 0.318106 -0.478207
2009-12-08 17:36:26 51°13.988 2°55.509 16.1534 0.049824 0.318078 -0.478207
2009-12-08 17:37:26 51°13.876 2°55.59 16.1947 0.049824 0.31805 -0.478207
2009-12-08 17:38:25 51°13.777 2°55.678 16.2498 0.049824 0.318009 -0.478207
2009-12-08 17:39:26 51°13.724 2°55.776 16.2789 0.049824 0.317974 -0.478207
2009-12-08 17:40:26 51°13.687 2°55.868 16.33 0.049824 0.31794 -0.478207
2009-12-08 17:41:29 51°13.663 2°55.954 16.36 0.049824 0.317905 -0.443383